星链-4340 (STARLINK-4340 )

导读 | 豆包AI

STARLINK-4340是美国太空探索技术公司(SpaceX)星链卫星互联网项目的组网卫星,于2022年8月12日发射升空,归属星链低轨星座星座,承担全球卫星互联网通信传输任务,作为星链星座的组成部分,它助力扩展星链网络覆盖范围,提升项目全球通信服务能力,该卫星服役后,推动星链星座组网建设进程。

基本信息
目录编号:
53494
目录名称:
STARLINK-4340
国际标识:
2022-099AF
轨道中心:
EARTH
卫星名称:
星链-4340
卫星全名:
星链-4340 (STARLINK-4340 )
卫星状态:
在轨 (已飞行1357 天)
发射日期:
2022-08-12 UTC
国别 :
美国 (US)
星等 :
--
轨道信息
数据来源 国际轨道数据
星历时间: 2026-04-30T14:27:06+0800
13小时前
查看轨道信息
半长轴: 6927.668km
偏心率: 0.0001774
轨道倾角: 97.555°
近地点辐角 186.795°
升交点赤经 242.066°
平近点角 173.325°
近地点: 548.302km
远地点: 550.76km
周期: 95.640分钟
每日圈数: 15.056438
详细信息
固有亮度:
5
最大亮度:
2.5
卫星平台:
Starlink v1.5
覆盖范围:
全球
运营商:
太空探索技术公司
运营商所在国:
美国
制造商(研发单位):
太空探索技术公司
制造商所在国:
美国
使用方式:
暂无
卫星简介
星链(Starlink)计划是由太空探索技术公司(SpaceX)提出的一个巨型低轨卫星互联网星座项目,计划在2019年至2024年间在太空搭建由约1.2万颗卫星组成的“星链”网络,其中1584颗将部署在地球上空550千米处的近地轨道,并从2020年开始工作。该卫星仍在工作。
2D轨道图
3D轨道图
轨道高度分析图
轨道倾角分析图
轨道综合分析图
查看轨道综合分析图